• în România
  • Lista ţărilor
  • Pe 7 zile
  • Temperatura apei
  • Hartă satelitară
  • Meteo pe hartă
  • Widget-uri
  • user-avatar
    Intrare

    Meteo pe oră la Kaposvar

    Astăzi, 16 Octombrie, Marţi

    Timp Temperatura Precipitaţii Vânt Presiune Umiditate
    00:00 +13°C° 0 mm 1 m/s 751 mmHg 50%
    01:00 +13°C° 0 mm 1 m/s 752 mmHg 52%
    02:00 +13°C° 0 mm 1 m/s 751 mmHg 53%
    03:00 +12°C° 0 mm 1 m/s 751 mmHg 54%
    04:00 +12°C° 0 mm 1 m/s 751 mmHg 56%
    05:00 +12°C° 0 mm 1 m/s 751 mmHg 56%
    06:00 +12°C° 0 mm 1 m/s 751 mmHg 56%
    07:00 +13°C° 0 mm 1 m/s 752 mmHg 51%
    08:00 +15°C° 0 mm 1 m/s 752 mmHg 47%
    09:00 +16°C° 0 mm 1 m/s 752 mmHg 43%
    10:00 +19°C° 0 mm 1 m/s 752 mmHg 39%
    11:00 +20°C° 0 mm 1 m/s 752 mmHg 37%
    12:00 +21°C° 0 mm 1 m/s 752 mmHg 36%
    13:00 +22°C° 0 mm 1 m/s 752 mmHg 35%
    14:00 +21°C° 0 mm 1 m/s 752 mmHg 36%
    15:00 +21°C° 0 mm 1 m/s 751 mmHg 38%
    16:00 +19°C° 0 mm 0 m/s 751 mmHg 40%
    17:00 +18°C° 0 mm 0 m/s 751 mmHg 42%
    18:00 +17°C° 0 mm 0 m/s 751 mmHg 43%
    19:00 +16°C° 0 mm 0 m/s 751 mmHg 45%
    20:00 +15°C° 0 mm 0 m/s 751 mmHg 46%
    21:00 +16°C° 0 mm 1 m/s 751 mmHg 47%
    22:00 +16°C° 0 mm 1 m/s 751 mmHg 48%
    23:00 +15°C° 0 mm 1 m/s 751 mmHg 49%

    Mâine, 17 Octombrie, Miercuri

    Timp Temperatura Precipitaţii Vânt Presiune Umiditate
    00:00 +15°C° 0 mm 1 m/s 751 mmHg 50%
    01:00 +15°C° 0 mm 1 m/s 751 mmHg 51%
    02:00 +14°C° 0 mm 1 m/s 751 mmHg 52%
    03:00 +14°C° 0 mm 1 m/s 751 mmHg 53%
    04:00 +13°C° 0 mm 1 m/s 751 mmHg 54%
    05:00 +13°C° 0 mm 1 m/s 751 mmHg 54%
    06:00 +13°C° 0 mm 1 m/s 751 mmHg 53%
    07:00 +13°C° 0 mm 1 m/s 751 mmHg 53%
    08:00 +15°C° 0 mm 1 m/s 751 mmHg 47%
    09:00 +19°C° 0 mm 1 m/s 751 mmHg 41%
    10:00 +20°C° 0 mm 2 m/s 751 mmHg 34%
    11:00 +21°C° 0 mm 2 m/s 750 mmHg 32%
    12:00 +23°C° 0 mm 2 m/s 750 mmHg 30%
    13:00 +25°C° 0 mm 2 m/s 750 mmHg 27%
    14:00 +24°C° 0 mm 2 m/s 750 mmHg 29%
    15:00 +24°C° 0 mm 1 m/s 749 mmHg 30%
    16:00 +23°C° 0 mm 1 m/s 749 mmHg 31%
    17:00 +22°C° 0 mm 1 m/s 749 mmHg 33%
    18:00 +20°C° 0 mm 1 m/s 749 mmHg 36%
    19:00 +18°C° 0 mm 1 m/s 749 mmHg 38%
    20:00 +16°C° 0 mm 1 m/s 749 mmHg 39%
    21:00 +16°C° 0 mm 1 m/s 749 mmHg 41%
    22:00 +15°C° 0 mm 1 m/s 749 mmHg 42%
    23:00 +15°C° 0 mm 1 m/s 749 mmHg 43%

    Poimâine, 18 Octombrie, Joi

    Timp Temperatura Precipitaţii Vânt Presiune Umiditate
    00:00 +14°C° 0 mm 1 m/s 749 mmHg 44%
    01:00 +14°C° 0 mm 1 m/s 749 mmHg 45%
    02:00 +14°C° 0 mm 1 m/s 749 mmHg 45%
    03:00 +14°C° 0 mm 1 m/s 749 mmHg 45%
    04:00 +13°C° 0 mm 1 m/s 749 mmHg 46%
    05:00 +13°C° 0 mm 1 m/s 749 mmHg 46%
    06:00 +14°C° 0 mm 1 m/s 749 mmHg 47%
    07:00 +14°C° 0 mm 1 m/s 749 mmHg 48%
    08:00 +16°C° 0 mm 1 m/s 749 mmHg 45%
    09:00 +18°C° 0 mm 1 m/s 749 mmHg 43%
    10:00 +19°C° 0 mm 2 m/s 749 mmHg 40%
    11:00 +20°C° 0 mm 2 m/s 749 mmHg 40%
    12:00 +21°C° 0 mm 2 m/s 749 mmHg 39%
    13:00 +23°C° 0 mm 2 m/s 748 mmHg 38%
    14:00 +22°C° 0 mm 1 m/s 748 mmHg 40%
    15:00 +22°C° 0 mm 1 m/s 748 mmHg 42%
    16:00 +21°C° 0 mm 1 m/s 748 mmHg 44%
    17:00 +21°C° 0 mm 1 m/s 748 mmHg 45%
    18:00 +20°C° 0 mm 1 m/s 748 mmHg 47%
    19:00 +19°C° 0 mm 1 m/s 749 mmHg 48%
    20:00 +19°C° 0 mm 1 m/s 749 mmHg 49%
    21:00 +18°C° 0 mm 1 m/s 749 mmHg 49%
    22:00 +18°C° 0 mm 1 m/s 750 mmHg 49%
    23:00 +18°C° 0 mm 1 m/s 750 mmHg 49%

    19 Octombrie, Vineri

    Timp Temperatura Precipitaţii Vânt Presiune Umiditate
    00:00 +16°C° 0 mm 1 m/s 750 mmHg 48%
    01:00 +16°C° 0 mm 1 m/s 750 mmHg 48%
    02:00 +16°C° 0 mm 1 m/s 749 mmHg 49%
    03:00 +15°C° 0 mm 1 m/s 749 mmHg 49%
    04:00 +15°C° 0 mm 1 m/s 749 mmHg 50%
    05:00 +15°C° 0 mm 1 m/s 750 mmHg 51%
    06:00 +15°C° 0 mm 2 m/s 750 mmHg 52%
    07:00 +15°C° 0 mm 2 m/s 750 mmHg 53%
    08:00 +17°C° 0 mm 2 m/s 750 mmHg 49%
    09:00 +18°C° 0 mm 2 m/s 750 mmHg 45%
    10:00 +20°C° 0 mm 2 m/s 751 mmHg 41%
    11:00 +21°C° 0 mm 2 m/s 750 mmHg 39%
    12:00 +23°C° 0 mm 2 m/s 750 mmHg 37%
    13:00 +24°C° 0 mm 3 m/s 750 mmHg 34%
    14:00 +23°C° 0 mm 2 m/s 750 mmHg 36%
    15:00 +23°C° 0 mm 2 m/s 750 mmHg 38%
    16:00 +21°C° 0 mm 2 m/s 750 mmHg 40%
    17:00 +20°C° 0 mm 2 m/s 750 mmHg 46%
    18:00 +18°C° 0 mm 2 m/s 750 mmHg 52%
    19:00 +16°C° 0 mm 2 m/s 751 mmHg 58%
    20:00 +15°C° 0 mm 2 m/s 751 mmHg 61%
    21:00 +15°C° 0 mm 2 m/s 751 mmHg 65%
    22:00 +14°C° 0 mm 2 m/s 752 mmHg 68%
    23:00 +14°C° 0 mm 2 m/s 752 mmHg 72%

    20 Octombrie, Sâmbătă

    Timp Temperatura Precipitaţii Vânt Presiune Umiditate
    00:00 +13°C° 0 mm 2 m/s 752 mmHg 75%
    01:00 +13°C° 0 mm 2 m/s 752 mmHg 78%
    02:00 +12°C° 0 mm 2 m/s 752 mmHg 81%
    03:00 +12°C° 0 mm 2 m/s 752 mmHg 84%
    04:00 +10°C° 0 mm 2 m/s 752 mmHg 87%
    05:00 +10°C° 0 mm 2 m/s 752 mmHg 87%
    06:00 +10°C° 0 mm 2 m/s 753 mmHg 88%
    07:00 +10°C° 0 mm 2 m/s 753 mmHg 88%
    08:00 +13°C° 0 mm 2 m/s 753 mmHg 78%
    09:00 +16°C° 0 mm 2 m/s 754 mmHg 68%
    10:00 +18°C° 0 mm 2 m/s 754 mmHg 58%
    11:00 +19°C° 0 mm 2 m/s 754 mmHg 54%
    12:00 +20°C° 0 mm 2 m/s 754 mmHg 50%
    13:00 +21°C° 0 mm 2 m/s 753 mmHg 46%
    14:00 +21°C° 0 mm 2 m/s 753 mmHg 47%
    15:00 +20°C° 0 mm 2 m/s 753 mmHg 47%
    16:00 +20°C° 0 mm 2 m/s 753 mmHg 48%
    17:00 +18°C° 0 mm 2 m/s 753 mmHg 52%
    18:00 +17°C° 0 mm 3 m/s 753 mmHg 56%
    19:00 +14°C° 0 mm 3 m/s 754 mmHg 60%
    20:00 +14°C° 0 mm 3 m/s 754 mmHg 62%
    21:00 +13°C° 0 mm 3 m/s 754 mmHg 64%
    22:00 +12°C° 0 mm 3 m/s 754 mmHg 66%
    23:00 +12°C° 0 mm 3 m/s 754 mmHg 68%

    21 Octombrie, Duminică

    Timp Temperatura Precipitaţii Vânt Presiune Umiditate
    00:00 +11°C° 0 mm 3 m/s 754 mmHg 70%
    01:00 +10°C° 0 mm 3 m/s 754 mmHg 72%
    02:00 +10°C° 0 mm 3 m/s 754 mmHg 74%
    03:00 +9°C° 0 mm 3 m/s 754 mmHg 77%
    04:00 +9°C° 0 mm 3 m/s 754 mmHg 79%
    05:00 +9°C° 0 mm 3 m/s 754 mmHg 77%
    06:00 +9°C° 0 mm 3 m/s 754 mmHg 76%
    07:00 +8°C° 0 mm 4 m/s 755 mmHg 75%
    08:00 +10°C° 0 mm 4 m/s 755 mmHg 69%
    09:00 +11°C° 0 mm 4 m/s 755 mmHg 64%
    10:00 +13°C° 0 mm 4 m/s 755 mmHg 58%
    11:00 +13°C° 0 mm 4 m/s 754 mmHg 55%
    12:00 +14°C° 0 mm 4 m/s 754 mmHg 51%
    13:00 +14°C° 0 mm 3 m/s 753 mmHg 48%
    14:00 +14°C° 0 mm 3 m/s 753 mmHg 48%
    15:00 +14°C° 0 mm 3 m/s 753 mmHg 49%
    16:00 +13°C° 0 mm 3 m/s 753 mmHg 49%
    17:00 +12°C° 0 mm 3 m/s 753 mmHg 53%
    18:00 +11°C° 0 mm 3 m/s 753 mmHg 56%
    19:00 +10°C° 0 mm 2 m/s 753 mmHg 60%
    20:00 +9°C° 0 mm 2 m/s 753 mmHg 62%
    21:00 +9°C° 0 mm 2 m/s 754 mmHg 64%
    22:00 +9°C° 0 mm 2 m/s 754 mmHg 65%
    23:00 +8°C° 0 mm 2 m/s 754 mmHg 67%
    Arată mai mult